TIANMU-1 14

Last updated on Sat Aug 15 2026 00:02:41 GMT+0000 (Coordinated Universal Time)

1 58648U 23205D 26226.62091237 .00002888 00000+0 11099-3 0 9999 2 58648 97.3394 246.4394 0008737 120.9987 239.2111 15.27190384146427
UTC large
Height (km)
Speed (km/s)
/
Latitude / Longitude
Inclination (degrees)
Orbital Period (minutes)
Azimuth
Elevation
Range (km)
Doppler Factor

Next 0 passes for location: London (51.5072 / 0.1276)

No passes found over London.
TIANMU-1 14